• In France
  • List of Countries
  • For 7 days
  • Water Temperature
  • Satellite Maps
  • Weather Map
  • Weather Widgets
  • user-avatar
    Login

    Hourly Weather Hoeryŏng

    Today, 25 May, Friday

    Time Temperature Precipitation Wind Pressure Humidity
    00:00 +16°C° 0 mm 1 mps 749 mmHg 75%
    01:00 +15°C° 0 mm 1 mps 750 mmHg 77%
    02:00 +15°C° 0 mm 1 mps 750 mmHg 78%
    03:00 +15°C° 0 mm 1 mps 750 mmHg 79%
    04:00 +15°C° 0 mm 1 mps 750 mmHg 79%
    05:00 +15°C° 0 mm 1 mps 750 mmHg 80%
    06:00 +18°C° 0 mm 1 mps 750 mmHg 70%
    07:00 +19°C° 0 mm 2 mps 750 mmHg 59%
    08:00 +21°C° 0 mm 2 mps 750 mmHg 49%
    09:00 +23°C° 0 mm 2 mps 750 mmHg 44%
    10:00 +25°C° 0 mm 2 mps 749 mmHg 40%
    11:00 +26°C° 0 mm 3 mps 749 mmHg 35%
    12:00 +27°C° 0 mm 3 mps 749 mmHg 35%
    13:00 +27°C° 0 mm 4 mps 749 mmHg 35%
    14:00 +27°C° 0 mm 4 mps 749 mmHg 35%
    15:00 +26°C° 0 mm 4 mps 749 mmHg 39%
    16:00 +25°C° 0 mm 3 mps 749 mmHg 43%
    17:00 +24°C° 0 mm 2 mps 749 mmHg 47%
    18:00 +21°C° 0 mm 2 mps 749 mmHg 52%
    19:00 +21°C° 0 mm 1 mps 749 mmHg 56%
    20:00 +19°C° 0 mm 1 mps 750 mmHg 60%
    21:00 +18°C° 0 mm 1 mps 750 mmHg 63%
    22:00 +16°C° 0 mm 0 mps 750 mmHg 65%
    23:00 +15°C° 0 mm 0 mps 750 mmHg 68%

    Tomorrow, 26 May, Saturday

    Time Temperature Precipitation Wind Pressure Humidity
    00:00 +15°C° 0 mm 0 mps 750 mmHg 69%
    01:00 +14°C° 0 mm 0 mps 750 mmHg 70%
    02:00 +15°C° 0 mm 1 mps 750 mmHg 72%
    03:00 +15°C° 0 mm 1 mps 751 mmHg 73%
    04:00 +15°C° 0 mm 1 mps 751 mmHg 74%
    05:00 +15°C° 0 mm 1 mps 751 mmHg 75%
    06:00 +19°C° 0 mm 1 mps 751 mmHg 68%
    07:00 +21°C° 0 mm 1 mps 751 mmHg 62%
    08:00 +24°C° 0 mm 1 mps 751 mmHg 55%
    09:00 +26°C° 0 mm 1 mps 751 mmHg 50%
    10:00 +28°C° 0 mm 1 mps 751 mmHg 45%
    11:00 +29°C° 0 mm 2 mps 751 mmHg 40%
    12:00 +30°C° 0 mm 2 mps 751 mmHg 39%
    13:00 +30°C° 0 mm 2 mps 750 mmHg 38%
    14:00 +31°C° 0 mm 2 mps 750 mmHg 37%
    15:00 +30°C° 0 mm 2 mps 750 mmHg 41%
    16:00 +30°C° 0 mm 2 mps 750 mmHg 45%
    17:00 +29°C° 0 mm 2 mps 750 mmHg 49%
    18:00 +27°C° 0 mm 2 mps 750 mmHg 53%
    19:00 +25°C° 0 mm 2 mps 751 mmHg 58%
    20:00 +23°C° 0 mm 1 mps 751 mmHg 63%
    21:00 +22°C° 0 mm 1 mps 751 mmHg 64%
    22:00 +21°C° 0 mm 1 mps 752 mmHg 66%
    23:00 +19°C° 0 mm 0 mps 752 mmHg 67%

    Day after tomorrow, 27 May, Sunday

    Time Temperature Precipitation Wind Pressure Humidity
    00:00 +18°C° 0 mm 0 mps 751 mmHg 68%
    01:00 +18°C° 0 mm 0 mps 751 mmHg 68%
    02:00 +18°C° 0 mm 0 mps 751 mmHg 69%
    03:00 +18°C° 0 mm 0 mps 751 mmHg 69%
    04:00 +20°C° 0 mm 1 mps 751 mmHg 69%
    05:00 +20°C° 0 mm 1 mps 751 mmHg 69%
    06:00 +21°C° 0 mm 1 mps 751 mmHg 64%
    07:00 +22°C° 0 mm 1 mps 751 mmHg 59%
    08:00 +24°C° 0 mm 1 mps 751 mmHg 54%
    09:00 +25°C° 0 mm 1 mps 751 mmHg 49%
    10:00 +26°C° 0 mm 2 mps 751 mmHg 44%
    11:00 +27°C° 0 mm 2 mps 751 mmHg 39%
    12:00 +27°C° 0 mm 2 mps 750 mmHg 38%
    13:00 +28°C° 0 mm 3 mps 750 mmHg 36%
    14:00 +28°C° 0 mm 3 mps 749 mmHg 35%
    15:00 +27°C° 0 mm 2 mps 749 mmHg 39%
    16:00 +26°C° 0 mm 2 mps 749 mmHg 42%
    17:00 +25°C° 0 mm 2 mps 749 mmHg 45%
    18:00 +24°C° 0 mm 2 mps 749 mmHg 47%
    19:00 +22°C° 0 mm 1 mps 749 mmHg 49%
    20:00 +21°C° 0 mm 1 mps 749 mmHg 51%
    21:00 +20°C° 0 mm 1 mps 749 mmHg 52%
    22:00 +18°C° 0 mm 0 mps 749 mmHg 53%
    23:00 +17°C° 0 mm 0 mps 749 mmHg 54%

    28 May, Monday

    Time Temperature Precipitation Wind Pressure Humidity
    00:00 +17°C° 0 mm 0 mps 749 mmHg 56%
    01:00 +16°C° 0 mm 0 mps 749 mmHg 58%
    02:00 +16°C° 0 mm 0 mps 749 mmHg 60%
    03:00 +16°C° 0 mm 0 mps 749 mmHg 62%
    04:00 +16°C° 0 mm 0 mps 749 mmHg 63%
    05:00 +16°C° 0 mm 0 mps 749 mmHg 65%
    06:00 +18°C° 0 mm 0 mps 749 mmHg 59%
    07:00 +20°C° 0 mm 0 mps 749 mmHg 53%
    08:00 +25°C° 0 mm 1 mps 749 mmHg 47%
    09:00 +26°C° 0 mm 1 mps 749 mmHg 44%
    10:00 +28°C° 0 mm 1 mps 749 mmHg 41%
    11:00 +29°C° 0 mm 2 mps 749 mmHg 38%
    12:00 +29°C° 0 mm 2 mps 749 mmHg 37%
    13:00 +30°C° 0 mm 3 mps 748 mmHg 37%
    14:00 +30°C° 0 mm 3 mps 748 mmHg 36%
    15:00 +29°C° 0 mm 3 mps 748 mmHg 40%
    16:00 +28°C° 0 mm 3 mps 748 mmHg 44%
    17:00 +27°C° 0 mm 3 mps 748 mmHg 48%
    18:00 +25°C° 0 mm 2 mps 748 mmHg 53%
    19:00 +23°C° 0 mm 2 mps 748 mmHg 58%
    20:00 +20°C° 0 mm 2 mps 748 mmHg 63%
    21:00 +19°C° 0 mm 2 mps 748 mmHg 70%
    22:00 +19°C° 0 mm 2 mps 748 mmHg 76%
    23:00 +18°C° 0 mm 2 mps 748 mmHg 83%

    29 May, Tuesday

    Time Temperature Precipitation Wind Pressure Humidity
    00:00 +18°C° 0.2 mm 2 mps 748 mmHg 85%
    01:00 +18°C° 0.2 mm 2 mps 748 mmHg 87%
    02:00 +18°C° 0.2 mm 2 mps 747 mmHg 90%
    03:00 +18°C° 0 mm 2 mps 748 mmHg 89%
    04:00 +18°C° 0 mm 2 mps 748 mmHg 89%
    05:00 +18°C° 0 mm 2 mps 748 mmHg 89%
    06:00 +18°C° 0.1 mm 2 mps 748 mmHg 86%
    07:00 +19°C° 0.1 mm 2 mps 749 mmHg 83%
    08:00 +19°C° 0.1 mm 2 mps 749 mmHg 81%
    09:00 +20°C° 0 mm 2 mps 749 mmHg 72%
    10:00 +22°C° 0 mm 3 mps 749 mmHg 64%
    11:00 +24°C° 0 mm 3 mps 749 mmHg 55%
    12:00 +25°C° 0.1 mm 4 mps 749 mmHg 53%
    13:00 +25°C° 0.1 mm 5 mps 748 mmHg 50%
    14:00 +24°C° 0.1 mm 6 mps 748 mmHg 48%
    15:00 +25°C° 0.1 mm 5 mps 748 mmHg 50%
    16:00 +23°C° 0.1 mm 5 mps 748 mmHg 53%
    17:00 +22°C° 0.1 mm 5 mps 748 mmHg 55%
    18:00 +21°C° 0 mm 4 mps 749 mmHg 60%
    19:00 +20°C° 0 mm 4 mps 749 mmHg 64%
    20:00 +18°C° 0 mm 3 mps 750 mmHg 68%
    21:00 +18°C° 0 mm 3 mps 750 mmHg 70%
    22:00 +17°C° 0 mm 3 mps 750 mmHg 73%
    23:00 +16°C° 0 mm 2 mps 750 mmHg 75%

    30 May, Wednesday

    Time Temperature Precipitation Wind Pressure Humidity
    00:00 +16°C° 0 mm 2 mps 750 mmHg 77%
    01:00 +16°C° 0 mm 2 mps 750 mmHg 80%
    02:00 +15°C° 0 mm 1 mps 749 mmHg 82%
    03:00 +15°C° 0 mm 1 mps 750 mmHg 83%
    04:00 +16°C° 0 mm 1 mps 750 mmHg 83%
    05:00 +16°C° 0 mm 1 mps 750 mmHg 84%
    06:00 +19°C° 0 mm 1 mps 750 mmHg 77%
    07:00 +19°C° 0 mm 2 mps 751 mmHg 70%
    08:00 +21°C° 0 mm 2 mps 751 mmHg 62%
    09:00 +22°C° 0.3 mm 3 mps 751 mmHg 59%
    10:00 +24°C° 0.3 mm 3 mps 751 mmHg 56%
    11:00 +25°C° 0.3 mm 4 mps 750 mmHg 54%
    12:00 +26°C° 0.3 mm 4 mps 750 mmHg 53%
    13:00 +26°C° 0.3 mm 4 mps 750 mmHg 53%
    14:00 +26°C° 0.3 mm 4 mps 750 mmHg 52%
    15:00 +26°C° 0.3 mm 3 mps 750 mmHg 55%
    16:00 +25°C° 0.3 mm 3 mps 750 mmHg 58%
    17:00 +25°C° 0.3 mm 2 mps 750 mmHg 61%
    18:00 +23°C° 0.1 mm 2 mps 751 mmHg 65%
    19:00 +21°C° 0.1 mm 2 mps 751 mmHg 69%
    20:00 +20°C° 0.1 mm 1 mps 752 mmHg 73%
    21:00 +20°C° 0 mm 1 mps 752 mmHg 76%
    22:00 +19°C° 0 mm 1 mps 752 mmHg 78%
    23:00 +19°C° 0 mm 1 mps 752 mmHg 80%
    Show more